Tracking 29069 objects as of 18-Jul-2024
HD Live streaming from Space Station
objects crossing your sky now

COSMOS 1477

Track COSMOS 1477 now!
10-day predictions
COSMOS 1477 is classified as:


NORAD ID: 14175
Int'l Code: 1983-069E
Perigee: 1,468.3 km
Apogee: 1,471.2 km
Inclination: 74.0 °
Period: 115.2 minutes
Semi major axis: 7840 km
RCS: 0.6791 m2 (medium)
Launch date: July 6, 1983
Source: Commonwealth of Independent States (former USSR) (CIS)
Launch site: PLESETSK MISSILE AND SPACE COMPLEX (PKMTR)
Your satellite tracking list
Your tracking list is empty




NASA's NSSDC Master Catalog

Two Line Element Set (TLE):
1 14175U 83069E   24199.97054832 -.00000004  00000-0  76115-4 0  9996
2 14175  74.0247 164.9979 0001840 155.5957 261.5912 12.50440416873189
Source of the keplerian elements: AFSPC